[[[{"header":{"parameterUnit":"kt","parameterCategory":2,"dx":1,"dy":1,"la1":30.253999710083008,"la2":30.299108505249023,"lo1":-89.0895004272461,"lo2":-89.04439544677734,"nx":28,"ny":28,"refTime":"2022-10-05T21:00:00:Z","depth":"0","parameterNumber":2,"parameterNumberName":"U-component_of_CURRENTS"},"data":[-0.2326,-0.2198,-0.2119,-0.1932,-0.1857,-0.172,-0.1661,-0.1647,-0.1702,-0.1918,-0.2177,-0.2438,-0.2854,-0.3158,-0.3206,-0.3122,-0.2976,-0.2853,-0.2815,-0.2956,-0.2939,-0.2924,-0.2935,-0.3083,-0.3084,-0.2626,-0.2624,-0.2623,-0.2382,-0.2281,-0.2167,-0.2022,-0.1939,-0.1921,-0.1838,-0.1781,-0.1805,-0.197,-0.2119,-0.2502,-0.2735,-0.2896,-0.3073,-0.2987,-0.2824,-0.291,-0.2694,-0.2688,-0.278,-0.279,-0.2909,-0.2909,-0.2909,-0.2909,-0.2909,-0.2909,-0.244,-0.2366,-0.2242,-0.213,-0.2061,-0.1983,-0.1905,-0.1921,-0.1927,-0.2011,-0.2166,-0.2345,-0.2599,-0.2744,-0.2733,-0.2786,-0.2652,-0.2727,-0.2756,-0.2563,-0.2564,-0.2654,-0.2732,-0.2731,-0.2731,-0.273,-0.273,0,-0.2491,-0.2429,-0.2343,-0.2222,-0.2146,-0.2074,-0.2022,-0.2001,-0.2031,-0.2078,-0.2189,-0.2293,-0.2452,-0.2582,-0.2644,-0.2632,-0.2524,-0.2577,-0.2583,-0.2659,-0.2484,-0.2496,-0.2543,-0.259,-0.2588,-0.2587,-0.2586,-0.2586,-0.255,-0.2482,-0.2349,-0.2294,-0.2246,-0.218,-0.2136,-0.2132,-0.2121,-0.2203,-0.22,-0.2292,-0.2383,-0.2453,-0.2494,-0.2525,-0.2446,-0.2542,-0.2505,-0.2531,-0.2575,-0.2396,-0.2395,-0.257,-0.2572,-0.2573,-0.2575,0,-0.2574,-0.2515,-0.2414,-0.2328,-0.2304,-0.2254,-0.2207,-0.2186,-0.2212,-0.2213,-0.2215,-0.2299,-0.2351,-0.2372,-0.2382,-0.2379,-0.238,-0.2397,-0.2452,-0.2476,-0.252,-0.2548,-0.2406,-0.2408,-0.2445,-0.2447,-0.2448,0,-0.2598,-0.2539,-0.245,-0.2402,-0.2332,-0.2321,-0.2277,-0.2279,-0.2285,-0.2281,-0.2319,-0.2326,-0.2327,-0.2346,-0.2328,-0.2345,-0.2329,-0.2327,-0.2346,-0.2382,-0.239,-0.2439,-0.2472,-0.2276,-0.2275,-0.2275,-0.2275,0,-0.2646,-0.2553,-0.2473,-0.2448,-0.2387,-0.2364,-0.2348,-0.2358,-0.2343,-0.2363,-0.2361,-0.235,-0.2325,-0.2317,-0.2301,-0.2291,-0.2301,-0.2288,-0.2331,-0.2336,-0.2411,-0.2424,-0.2415,-0.2274,-0.2274,-0.2274,-0.2274,0,-0.267,-0.26,-0.2516,-0.245,-0.2433,-0.2412,-0.2392,-0.238,-0.2394,-0.2392,-0.2377,-0.2378,-0.2323,-0.2304,-0.2274,-0.228,-0.2274,-0.2264,-0.2266,-0.2346,-0.2378,-0.2482,-0.2434,-0.245,-0.2313,-0.2313,-0.2313,0,-0.2731,-0.2626,-0.2587,-0.2524,-0.2476,-0.2475,-0.2461,-0.2455,-0.2454,-0.2446,-0.2407,-0.2375,-0.2344,-0.2309,-0.2282,-0.2266,-0.2251,-0.2242,-0.2328,-0.2331,-0.2402,-0.2336,-0.2383,-0.2429,-0.2312,-0.2312,-0.2312,0,-0.2768,-0.2654,-0.2642,-0.2607,-0.2565,-0.2537,-0.2524,-0.2504,-0.2502,-0.2467,-0.2454,-0.2367,-0.2355,-0.2343,-0.2314,-0.2291,-0.2253,-0.2317,-0.2319,-0.2363,-0.2283,-0.2331,-0.2336,-0.2268,-0.2268,-0.2267,-0.2312,0,-0.2788,-0.2723,-0.2687,-0.2624,-0.2602,-0.256,-0.2555,-0.2537,-0.2531,-0.253,-0.2482,-0.2427,-0.2404,-0.238,-0.2362,-0.2323,-0.2363,-0.2375,-0.2441,-0.2368,-0.2396,-0.2395,-0.2422,-0.2424,-0.2425,-0.2426,0,0,-0.2862,-0.2766,-0.2716,-0.2672,-0.265,-0.265,-0.2619,-0.2608,-0.2573,-0.2565,-0.2564,-0.2507,-0.2493,-0.2452,-0.2406,-0.2397,-0.2427,-0.2464,-0.239,-0.2385,-0.2381,-0.2405,-0.2403,-0.2429,-0.2429,-0.243,-0.243,0,-0.2855,-0.2794,-0.2731,-0.2706,-0.2669,-0.2662,-0.2652,-0.2625,-0.2619,-0.2575,-0.2581,-0.2534,-0.2531,-0.2515,-0.2511,-0.2418,-0.2513,-0.2435,-0.24,-0.2401,-0.2395,-0.2389,-0.2411,-0.2408,-0.2433,-0.2433,-0.2433,0,-0.2896,-0.2844,-0.2804,-0.2735,-0.2718,-0.2694,-0.2707,-0.2672,-0.2662,-0.2675,-0.2649,-0.2631,-0.2633,-0.2595,-0.2586,-0.2616,-0.2582,-0.2588,-0.258,-0.2601,-0.2606,-0.2597,-0.259,-0.2697,-0.2698,-0.2699,0,0,-0.2904,-0.2825,-0.2796,-0.2739,-0.2724,-0.2714,-0.2696,-0.2697,-0.2673,-0.2663,-0.2675,-0.2673,-0.2657,-0.2658,-0.2652,-0.2618,-0.2652,-0.262,-0.2608,-0.2598,-0.2612,-0.2614,-0.2605,-0.2702,-0.2702,-0.2703,0,0,-0.2922,-0.2846,-0.2846,-0.2771,-0.2753,-0.2731,-0.2704,-0.271,-0.2679,-0.2682,-0.2716,-0.272,-0.2689,-0.2708,-0.2742,-0.2702,-0.2752,-0.2745,-0.2699,-0.2684,-0.2672,-0.2694,-0.2838,0,0,0,0,0,-0.291,-0.285,-0.285,-0.2836,-0.2765,-0.2725,-0.2719,-0.2721,-0.2737,-0.2717,-0.2702,-0.2773,-0.2723,-0.2753,-0.2757,-0.2757,-0.2744,-0.2737,-0.273,-0.2662,-0.2646,-0.2632,0,0,0,0,0,0,-0.2904,-0.2886,-0.2853,-0.2824,-0.2809,-0.2727,-0.276,-0.2759,-0.274,-0.2744,-0.2765,-0.2773,-0.2801,-0.2757,-0.2759,-0.2758,-0.2837,-0.2741,-0.2735,-0.2729,-0.2657,-0.2643,-0.2632,0,0,0,0,0,-0.29,-0.2885,-0.2766,-0.2826,-0.2813,-0.2803,-0.2762,-0.2761,-0.2745,-0.2775,-0.2782,-0.275,-0.2799,-0.2804,-0.2759,-0.2756,-0.2836,-0.2836,-0.2737,-0.2732,-0.2728,-0.265,0,0,0,0,0,0,-0.2897,-0.2884,-0.2764,-0.2761,-0.2849,-0.2809,-0.28,-0.2763,-0.2779,-0.2783,-0.2764,-0.2768,-0.2797,-0.2801,-0.2805,-0.2752,-0.2835,-0.2836,-0.2836,-0.2733,-0.2729,-0.2726,0,0,0,0,0,0,-0.2893,-0.2881,-0.2762,-0.279,-0.279,-0.2814,-0.2806,-0.2805,-0.2781,-0.2767,-0.277,-0.2766,-0.2818,-0.2799,-0.2802,-0.2798,-0.2834,-0.2835,-0.2835,-0.2836,-0.273,-0.2727,0,0,0,0,0,0,-0.2889,-0.2878,-0.2791,-0.2791,-0.2791,-0.2756,-0.2817,-0.2758,-0.2756,-0.2768,-0.2762,-0.2765,-0.2817,-0.2819,-0.28,-0.2794,-0.2797,-0.2834,-0.2835,-0.2835,-0.2835,0,0,0,0,0,0,0,-0.2885,-0.2946,-0.2784,-0.2792,-0.2792,-0.2734,-0.2733,-0.2732,-0.2757,-0.2759,-0.2762,-0.2764,-0.2831,-0.2832,-0.2832,-0.2791,0,0,-0.2834,-0.2835,0,0,0,0,0,0,0,0,-0.2951,-0.2947,-0.2784,-0.2784,-0.2783,-0.2733,-0.2733,-0.2732,-0.2757,-0.2759,-0.2761,-0.2763,-0.2831,-0.2832,-0.2832,0,0,0,0,0,0,0,0,0,0,0,0,0,0,0,-0.2784,-0.2784,0,-0.2733,-0.2733,-0.2732,-0.2758,-0.2759,-0.2761,-0.2762,-0.2831,-0.2832,-0.2832,0,0,0,0,0,0,0,0,0,0,0,0,0,0,0,0,0,0,0,0,0,0,0,0,0,0,0,0,0,0,0,0,0,0,0,0,0,0,0,0,0,0,0,0,0,0,0,0,0,0,0,0,0,0,0,0,0,0,0,0,0,0,0,0,0,0,0,0,0]}],[{"header":{"parameterUnit":"kt","parameterCategory":2,"dx":1,"dy":1,"la1":30.253999710083008,"la2":30.299108505249023,"lo1":-89.0895004272461,"lo2":-89.04439544677734,"nx":28,"ny":28,"refTime":"2022-10-05T21:00:00:Z","depth":"0","parameterNumber":3,"parameterNumberName":"V-component_of_CURRENTS"},"data":[-0.0892,-0.0999,-0.1092,-0.1324,-0.1474,-0.1721,-0.1866,-0.2095,-0.2335,-0.2686,-0.2911,-0.3003,-0.2749,-0.2363,-0.2029,-0.1953,-0.1805,-0.1776,-0.1701,-0.1701,-0.1703,-0.1704,-0.1695,-0.1681,-0.168,-0.1674,-0.1673,-0.1672,-0.0915,-0.1003,-0.1129,-0.1348,-0.1501,-0.1611,-0.1847,-0.1994,-0.2235,-0.2483,-0.2631,-0.281,-0.2781,-0.2669,-0.2515,-0.2267,-0.2226,-0.2051,-0.1959,-0.2028,-0.217,-0.2186,-0.2276,-0.2277,-0.2277,-0.2277,-0.2277,-0.2277,-0.098,-0.1028,-0.119,-0.1346,-0.1489,-0.1672,-0.1787,-0.1963,-0.215,-0.2374,-0.2422,-0.2584,-0.2614,-0.2576,-0.2458,-0.2284,-0.2276,-0.217,-0.2076,-0.2025,-0.21,-0.2292,-0.2383,-0.2382,-0.238,-0.2379,-0.2378,0,-0.1067,-0.1139,-0.123,-0.1408,-0.1518,-0.1648,-0.1784,-0.1872,-0.2039,-0.2163,-0.2325,-0.2373,-0.2398,-0.2452,-0.2367,-0.2277,-0.2067,-0.2144,-0.195,-0.1991,-0.1951,-0.1992,-0.2117,-0.2221,-0.2218,-0.2217,-0.2215,-0.2214,-0.1143,-0.1204,-0.1385,-0.1459,-0.1522,-0.1625,-0.1713,-0.1833,-0.1931,-0.2088,-0.2151,-0.2188,-0.2241,-0.2186,-0.2168,-0.2102,-0.1941,-0.209,-0.2069,-0.191,-0.1794,-0.1731,-0.1788,-0.2189,-0.2192,-0.2195,-0.2197,0,-0.1175,-0.1286,-0.1392,-0.154,-0.1587,-0.1638,-0.1771,-0.1849,-0.1928,-0.204,-0.2057,-0.2117,-0.2116,-0.2052,-0.1988,-0.1944,-0.1881,-0.1891,-0.2005,-0.2,-0.1871,-0.1782,-0.1753,-0.1821,-0.1926,-0.1927,-0.1929,0,-0.1233,-0.1299,-0.1446,-0.1499,-0.159,-0.1672,-0.1759,-0.1822,-0.1916,-0.2007,-0.201,-0.2064,-0.1988,-0.1976,-0.1904,-0.1879,-0.1859,-0.1836,-0.1815,-0.1898,-0.1908,-0.1725,-0.1631,-0.1774,-0.1773,-0.1773,-0.1773,0,-0.1204,-0.1363,-0.1448,-0.1495,-0.1636,-0.1675,-0.173,-0.182,-0.188,-0.1946,-0.1983,-0.1984,-0.1972,-0.1927,-0.186,-0.1836,-0.1832,-0.1778,-0.1794,-0.1796,-0.1841,-0.1847,-0.1803,-0.1773,-0.1773,-0.1773,-0.1773,0,-0.1234,-0.1328,-0.1437,-0.1567,-0.1597,-0.1645,-0.1739,-0.1795,-0.1878,-0.1899,-0.1922,-0.1904,-0.1911,-0.185,-0.1821,-0.1813,-0.177,-0.1739,-0.1737,-0.1731,-0.1673,-0.1776,-0.191,-0.1745,-0.1697,-0.1697,-0.1696,0,-0.1184,-0.132,-0.1384,-0.1489,-0.1564,-0.1613,-0.1668,-0.1731,-0.1764,-0.1817,-0.1803,-0.1811,-0.1765,-0.1751,-0.1754,-0.1704,-0.1718,-0.1704,-0.1618,-0.1615,-0.1649,-0.1763,-0.1868,-0.1896,-0.169,-0.1691,-0.1691,0,-0.1149,-0.1312,-0.1327,-0.1388,-0.1482,-0.1525,-0.1585,-0.1659,-0.1706,-0.1719,-0.1763,-0.1738,-0.1721,-0.1692,-0.1656,-0.1657,-0.1704,-0.1601,-0.1597,-0.1603,-0.1698,-0.1747,-0.1756,-0.167,-0.1671,-0.1672,-0.1686,0,-0.121,-0.1271,-0.1305,-0.1404,-0.1441,-0.1498,-0.1553,-0.1588,-0.1594,-0.1625,-0.164,-0.1598,-0.1576,-0.1569,-0.1533,-0.1563,-0.1535,-0.1491,-0.1424,-0.1504,-0.1499,-0.1504,-0.141,-0.1407,-0.1405,-0.1403,0,0,-0.1152,-0.1232,-0.1276,-0.1345,-0.1385,-0.1417,-0.147,-0.1498,-0.1534,-0.1554,-0.1522,-0.1494,-0.1435,-0.1445,-0.148,-0.1443,-0.1427,-0.1397,-0.1467,-0.1475,-0.1482,-0.1482,-0.1489,-0.1399,-0.1398,-0.1398,-0.1397,0,-0.1191,-0.1212,-0.126,-0.131,-0.1384,-0.1414,-0.1427,-0.1485,-0.1497,-0.151,-0.1482,-0.1471,-0.1394,-0.1386,-0.1358,-0.1415,-0.1327,-0.1389,-0.1457,-0.1449,-0.146,-0.1469,-0.1472,-0.148,-0.1392,-0.1392,-0.1392,0,-0.1187,-0.124,-0.1256,-0.1325,-0.136,-0.1413,-0.1407,-0.1451,-0.1485,-0.141,-0.1423,-0.1386,-0.1319,-0.1312,-0.1291,-0.1255,-0.1249,-0.1227,-0.1238,-0.1229,-0.1215,-0.1228,-0.124,-0.1088,-0.1088,-0.1087,0,0,-0.1212,-0.1252,-0.1315,-0.1335,-0.1362,-0.1399,-0.1418,-0.1437,-0.1445,-0.144,-0.1397,-0.1349,-0.1314,-0.1279,-0.1236,-0.1203,-0.1168,-0.1195,-0.1209,-0.1221,-0.1219,-0.1209,-0.1222,-0.1085,-0.1085,-0.1085,0,0,-0.122,-0.1301,-0.1308,-0.1335,-0.1381,-0.1432,-0.1445,-0.1452,-0.1439,-0.143,-0.1359,-0.1339,-0.1311,-0.1248,-0.1233,-0.1203,-0.114,-0.114,-0.1246,-0.1263,-0.1276,-0.129,-0.1141,0,0,0,0,0,-0.1287,-0.1298,-0.1304,-0.1315,-0.1372,-0.143,-0.1437,-0.1453,-0.1439,-0.1449,-0.1418,-0.1338,-0.1249,-0.1234,-0.1209,-0.1213,-0.1056,-0.1061,-0.1066,-0.1194,-0.1212,-0.1228,0,0,0,0,0,0,-0.1292,-0.1305,-0.1304,-0.1356,-0.137,-0.1429,-0.1419,-0.1422,-0.1438,-0.1437,-0.1355,-0.1335,-0.1286,-0.1239,-0.1217,-0.1224,-0.1147,-0.1058,-0.1062,-0.1066,-0.12,-0.1215,-0.1228,0,0,0,0,0,-0.1296,-0.1307,-0.1392,-0.1355,-0.1367,-0.14,-0.1417,-0.142,-0.1423,-0.1361,-0.1346,-0.1435,-0.1288,-0.1264,-0.1225,-0.1237,-0.1161,-0.1154,-0.1061,-0.1064,-0.1067,-0.1208,0,0,0,0,0,0,-0.1299,-0.1298,-0.1395,-0.14,-0.1349,-0.1396,-0.1403,-0.1419,-0.1342,-0.1334,-0.1436,-0.1435,-0.129,-0.1271,-0.1253,-0.1248,-0.1172,-0.1165,-0.116,-0.1063,-0.1066,-0.1068,0,0,0,0,0,0,-0.1293,-0.1302,-0.1397,-0.1388,-0.1391,-0.1393,-0.1399,-0.1323,-0.1335,-0.1416,-0.1418,-0.1436,-0.1268,-0.1275,-0.1261,-0.1147,-0.1181,-0.1174,-0.1169,-0.1166,-0.1066,-0.1068,0,0,0,0,0,0,-0.1297,-0.1304,-0.1386,-0.1388,-0.1391,-0.1438,-0.1319,-0.1341,-0.1439,-0.1414,-0.1438,-0.1437,-0.127,-0.1258,-0.1267,-0.116,-0.115,-0.1181,-0.1176,-0.1172,-0.117,0,0,0,0,0,0,0,-0.13,-0.1248,-0.1377,-0.1389,-0.1391,-0.1444,-0.1445,-0.1445,-0.1439,-0.1439,-0.1438,-0.1437,-0.1222,-0.1214,-0.1206,-0.117,0,0,-0.1182,-0.1178,0,0,0,0,0,0,0,0,-0.1245,-0.1247,-0.1377,-0.1378,-0.138,-0.1444,-0.1445,-0.1445,-0.1439,-0.1439,-0.1438,-0.1437,-0.122,-0.1214,-0.1207,0,0,0,0,0,0,0,0,0,0,0,0,0,0,0,-0.1377,-0.1378,0,-0.1444,-0.1445,-0.1445,-0.1439,-0.1439,-0.1438,-0.1438,-0.1218,-0.1213,-0.1208,0,0,0,0,0,0,0,0,0,0,0,0,0,0,0,0,0,0,0,0,0,0,0,0,0,0,0,0,0,0,0,0,0,0,0,0,0,0,0,0,0,0,0,0,0,0,0,0,0,0,0,0,0,0,0,0,0,0,0,0,0,0,0,0,0,0,0,0,0]}]],[[{"header":{"parameterUnit":"kt","parameterCategory":2,"dx":1,"dy":1,"la1":30.253999710083008,"la2":30.299108505249023,"lo1":-89.0895004272461,"lo2":-89.04439544677734,"nx":28,"ny":28,"refTime":"2022-10-05T21:00:00:Z","depth":"2","parameterNumber":2,"parameterNumberName":"U-component_of_CURRENTS"},"data":[-0.3313,-0.3237,-0.3254,-0.3149,-0.3123,-0.3067,-0.308,-0.3111,-0.3037,-0.2734,-0.2451,-0.2415,-0.1969,-0.1438,-0.1134,-0.0857,-0.1027,-0.0805,-0.1307,-0.1458,-0.1505,-0.1409,-0.1479,0,0,0,0,0,-0.3422,-0.3416,-0.3367,-0.3338,-0.3297,-0.3304,-0.3315,-0.3314,-0.3334,-0.3204,-0.3122,-0.2415,-0.2096,-0.1728,-0.1243,-0.1059,-0.1102,-0.0945,-0.1006,-0.1055,-0.1099,-0.1111,-0.0614,-0.0612,-0.0611,-0.061,0,0,-0.3618,-0.3598,-0.3582,-0.3508,-0.3474,-0.3467,-0.3447,-0.3452,-0.3448,-0.3375,-0.3316,-0.3065,-0.2692,-0.2075,-0.1782,-0.1498,-0.1673,-0.1513,-0.1534,-0.1561,-0.159,-0.1611,-0.1224,-0.1227,-0.1229,-0.1231,-0.1233,0,-0.3783,-0.3768,-0.3757,-0.3711,-0.3646,-0.3622,-0.3565,-0.3559,-0.3558,-0.3514,-0.343,-0.3352,-0.2958,-0.2578,-0.2182,-0.2013,-0.1988,-0.1808,-0.2204,-0.1946,-0.1973,-0.1977,-0.2024,-0.1652,-0.1657,-0.166,-0.1663,-0.1665,-0.3899,-0.3892,-0.3883,-0.3841,-0.3824,-0.3766,-0.371,-0.3722,-0.3669,-0.3588,-0.3516,-0.3339,-0.3214,-0.2819,-0.2569,-0.2291,-0.2375,-0.1932,-0.2022,-0.2455,-0.2452,-0.2485,-0.2515,-0.172,-0.1713,-0.1708,-0.1703,0,-0.3936,-0.3985,-0.3961,-0.3961,-0.3939,-0.3881,-0.3836,-0.3765,-0.3737,-0.363,-0.3613,-0.3512,-0.3316,-0.3156,-0.2906,-0.2797,-0.2585,-0.2473,-0.2335,-0.2285,-0.2529,-0.2553,-0.2218,-0.2213,-0.2208,-0.2204,-0.22,0,-0.4022,-0.3987,-0.403,-0.4034,-0.396,-0.3986,-0.3882,-0.3849,-0.3778,-0.3693,-0.3664,-0.3576,-0.3465,-0.3293,-0.3187,-0.292,-0.2926,-0.279,-0.2751,-0.2626,-0.2611,-0.2999,-0.3021,-0.2836,-0.2839,-0.284,-0.2842,0,-0.405,-0.4079,-0.4072,-0.4079,-0.4098,-0.4039,-0.402,-0.3933,-0.3885,-0.3783,-0.3729,-0.36,-0.3525,-0.3392,-0.326,-0.3327,-0.2997,-0.3069,-0.2857,-0.2851,-0.2633,-0.2615,-0.2845,-0.2845,-0.2846,-0.2846,-0.2847,0,-0.4119,-0.4162,-0.4166,-0.4159,-0.4152,-0.4127,-0.4028,-0.4007,-0.3897,-0.3854,-0.376,-0.3724,-0.3596,-0.363,-0.3405,-0.3502,-0.3381,-0.3306,-0.3294,-0.3197,-0.3229,-0.2828,-0.2633,-0.3183,-0.3186,-0.319,-0.3193,0,-0.4145,-0.4198,-0.4228,-0.4205,-0.4221,-0.4208,-0.4168,-0.4119,-0.4065,-0.3973,-0.389,-0.3812,-0.3826,-0.3783,-0.3685,-0.3598,-0.3468,-0.3608,-0.3371,-0.3363,-0.3276,-0.3146,-0.2964,-0.2702,-0.3236,-0.3231,-0.3228,0,-0.4171,-0.4257,-0.4238,-0.4232,-0.426,-0.4271,-0.4233,-0.4188,-0.4109,-0.4085,-0.3971,-0.39,-0.3861,-0.3814,-0.3779,-0.3685,-0.3537,-0.369,-0.3685,-0.3564,-0.33,-0.3217,-0.318,-0.3539,-0.3535,-0.3531,-0.3262,0,-0.4238,-0.424,-0.4256,-0.4277,-0.4287,-0.4295,-0.4299,-0.4271,-0.4221,-0.4183,-0.4081,-0.4033,-0.3937,-0.392,-0.39,-0.3773,-0.3764,-0.3781,-0.3746,-0.3709,-0.3601,-0.3574,-0.3894,-0.3894,-0.3895,-0.3895,0,0,-0.4209,-0.4243,-0.428,-0.4308,-0.4302,-0.4307,-0.4306,-0.4293,-0.4268,-0.4209,-0.421,-0.4077,-0.4026,-0.3907,-0.39,-0.3903,-0.3844,-0.3865,-0.3756,-0.3741,-0.3726,-0.362,-0.3594,-0.3895,-0.3895,-0.3895,-0.3896,0,-0.4246,-0.4254,-0.427,-0.4294,-0.4314,-0.432,-0.4316,-0.4323,-0.4274,-0.4244,-0.4173,-0.4099,-0.4051,-0.3972,-0.393,-0.3915,-0.3838,-0.3918,-0.3865,-0.3762,-0.3746,-0.3732,-0.3626,-0.3602,-0.3896,-0.3896,-0.3896,0,-0.4244,-0.4275,-0.4275,-0.4327,-0.4321,-0.4337,-0.4313,-0.4315,-0.4288,-0.4231,-0.4149,-0.4112,-0.4051,-0.3997,-0.3964,-0.3951,-0.3819,-0.3896,-0.3896,-0.387,-0.3761,-0.3746,-0.3732,-0.3903,-0.3903,-0.3903,0,0,-0.4262,-0.428,-0.4322,-0.4334,-0.4345,-0.433,-0.4327,-0.4302,-0.4273,-0.4238,-0.4177,-0.4105,-0.4054,-0.4004,-0.3975,-0.3932,-0.3868,-0.3896,-0.3896,-0.3895,-0.387,-0.3763,-0.3748,-0.3903,-0.3903,-0.3903,0,0,-0.4265,-0.4308,-0.4282,-0.4313,-0.4332,-0.4349,-0.4334,-0.4305,-0.4245,-0.4197,-0.4128,-0.4106,-0.4043,-0.4016,-0.402,-0.3935,-0.3939,-0.3938,-0.393,-0.393,-0.3929,-0.3903,-0.3958,0,0,0,0,0,-0.4293,-0.4319,-0.4296,-0.4302,-0.4322,-0.4372,-0.437,-0.4316,-0.4248,-0.4245,-0.4165,-0.4113,-0.4002,-0.4005,-0.3993,-0.3947,-0.3899,-0.3899,-0.39,-0.3883,-0.3883,-0.3883,0,0,0,0,0,0,-0.4296,-0.4307,-0.4296,-0.4321,-0.4325,-0.437,-0.4297,-0.4283,-0.4246,-0.423,-0.4133,-0.4113,-0.407,-0.4006,-0.3997,-0.3953,-0.3961,-0.3899,-0.39,-0.39,-0.3883,-0.3883,-0.3883,0,0,0,0,0,-0.4299,-0.4307,-0.435,-0.4319,-0.4322,-0.4273,-0.4292,-0.428,-0.4227,-0.4178,-0.4154,-0.418,-0.4074,-0.4057,-0.4,-0.3958,-0.3967,-0.3964,-0.3899,-0.39,-0.39,-0.3883,0,0,0,0,0,0,-0.43,-0.4283,-0.4349,-0.4348,-0.4282,-0.4266,-0.4261,-0.4278,-0.4172,-0.4155,-0.4225,-0.4215,-0.4078,-0.4064,-0.4052,-0.3961,-0.3972,-0.3969,-0.3967,-0.39,-0.39,-0.39,0,0,0,0,0,0,-0.4279,-0.4283,-0.4348,-0.4305,-0.4298,-0.4261,-0.4256,-0.4236,-0.4168,-0.4222,-0.4213,-0.4222,-0.4071,-0.407,-0.406,-0.4033,-0.3976,-0.3973,-0.3971,-0.3969,-0.39,-0.39,0,0,0,0,0,0,-0.428,-0.4283,-0.4304,-0.4299,-0.4292,-0.4272,-0.4237,-0.4237,-0.4197,-0.4225,-0.4186,-0.4181,-0.4077,-0.4067,-0.4066,-0.4045,-0.4036,-0.3976,-0.3974,-0.3972,-0.3971,0,0,0,0,0,0,0,-0.428,-0.4273,-0.4363,-0.4294,-0.4288,-0.4341,-0.434,-0.4339,-0.4196,-0.4192,-0.4187,-0.4183,-0.3994,-0.3991,-0.3987,-0.4054,0,0,-0.3976,-0.3975,0,0,0,0,0,0,0,0,-0.427,-0.4272,-0.4363,-0.4363,-0.4364,-0.4341,-0.434,-0.4339,-0.4196,-0.4192,-0.4188,-0.4185,-0.3993,-0.399,-0.3988,0,0,0,0,0,0,0,0,0,0,0,0,0,0,0,-0.4363,-0.4363,0,-0.4341,-0.434,-0.434,-0.4195,-0.4192,-0.4189,-0.4186,-0.3993,-0.399,-0.3988,0,0,0,0,0,0,0,0,0,0,0,0,0,0,0,0,0,0,0,0,0,0,0,0,0,0,0,0,0,0,0,0,0,0,0,0,0,0,0,0,0,0,0,0,0,0,0,0,0,0,0,0,0,0,0,0,0,0,0,0,0,0,0,0,0,0,0,0,0]}],[{"header":{"parameterUnit":"kt","parameterCategory":2,"dx":1,"dy":1,"la1":30.253999710083008,"la2":30.299108505249023,"lo1":-89.0895004272461,"lo2":-89.04439544677734,"nx":28,"ny":28,"refTime":"2022-10-05T21:00:00:Z","depth":"2","parameterNumber":3,"parameterNumberName":"V-component_of_CURRENTS"},"data":[-0.034,-0.0397,-0.0443,-0.0482,-0.0511,-0.0492,-0.0449,-0.0454,-0.0324,-0.0267,-0.0025,0.0133,0.0651,0.0824,0.0943,0.1185,0.1059,0.1068,0.1051,0.105,0.1043,0.1191,0.1114,0,0,0,0,0,-0.0348,-0.0395,-0.045,-0.0503,-0.0518,-0.052,-0.0427,-0.0395,-0.0299,-0.0113,-0.0,0.0261,0.056,0.0848,0.113,0.116,0.1069,0.1153,0.117,0.1168,0.1165,0.1115,0.119,0.119,0.1189,0.1188,0,0,-0.0372,-0.0407,-0.0466,-0.0506,-0.0524,-0.0484,-0.0458,-0.0367,-0.0247,-0.0066,0.0145,0.0378,0.0592,0.0803,0.0909,0.1061,0.1052,0.1147,0.1146,0.1144,0.1095,0.1043,0.1164,0.1163,0.1163,0.1162,0.1162,0,-0.0377,-0.0413,-0.0434,-0.0494,-0.0507,-0.0474,-0.0421,-0.0361,-0.0171,-0.0045,0.0216,0.0327,0.0588,0.0814,0.0947,0.0982,0.1095,0.1134,0.1092,0.109,0.104,0.1047,0.1033,0.1169,0.1168,0.1168,0.1167,0.1167,-0.0365,-0.0398,-0.0426,-0.0444,-0.045,-0.0447,-0.0416,-0.0313,-0.0214,0.0063,0.0157,0.0376,0.0524,0.0779,0.0901,0.1007,0.1047,0.1126,0.1066,0.0957,0.0967,0.0953,0.094,0.1162,0.1163,0.1163,0.1164,0,-0.0352,-0.0361,-0.037,-0.0357,-0.0357,-0.0365,-0.0286,-0.0227,-0.0119,0.003,0.0064,0.0314,0.0509,0.0636,0.0836,0.0873,0.0999,0.1032,0.1026,0.1045,0.0949,0.0935,0.1076,0.1076,0.1076,0.1076,0.1076,0,-0.0303,-0.03,-0.0304,-0.0316,-0.0315,-0.0245,-0.0208,-0.0136,-0.0021,0.0088,0.0192,0.0326,0.0454,0.0602,0.0681,0.0825,0.0874,0.0878,0.0902,0.092,0.0916,0.0892,0.0883,0.0956,0.0955,0.0954,0.0953,0,-0.0258,-0.023,-0.025,-0.0233,-0.0163,-0.0158,-0.0115,-0.0002,0.006,0.0169,0.0232,0.035,0.0424,0.0524,0.0656,0.0626,0.0848,0.0832,0.0863,0.086,0.0945,0.0945,0.0952,0.0951,0.0951,0.0951,0.095,0,-0.019,-0.0193,-0.0201,-0.0144,-0.0134,-0.0109,-0.0024,0.0036,0.0151,0.0194,0.0268,0.0329,0.0431,0.0421,0.0597,0.0541,0.0608,0.0675,0.0683,0.0681,0.0678,0.0792,0.0865,0.0751,0.0749,0.0747,0.0746,0,-0.0163,-0.0171,-0.013,-0.0106,-0.0102,-0.0038,0.0023,0.0085,0.0145,0.0212,0.0277,0.0341,0.0349,0.0366,0.0433,0.0529,0.0587,0.051,0.0686,0.0692,0.0628,0.0682,0.0714,0.0834,0.0722,0.0724,0.0726,0,-0.0141,-0.0116,-0.0119,-0.0107,-0.0049,-0.0031,0.0027,0.0091,0.0126,0.0171,0.0228,0.0316,0.0326,0.038,0.0421,0.0485,0.0549,0.0495,0.05,0.0521,0.0695,0.0653,0.0666,0.0566,0.0569,0.0571,0.0707,0,-0.0082,-0.0085,-0.0092,-0.0059,-0.003,-0.0029,0.0034,0.0056,0.0074,0.0118,0.0185,0.0243,0.0321,0.0354,0.0376,0.0464,0.0471,0.0487,0.0492,0.0525,0.0581,0.0596,0.0439,0.044,0.0441,0.0442,0,0,-0.0061,-0.0067,-0.0053,-0.0043,-0.0023,0.0005,0.0016,0.0051,0.0092,0.0113,0.0101,0.023,0.0278,0.0375,0.0383,0.0414,0.045,0.0417,0.0509,0.0516,0.0523,0.0577,0.059,0.0444,0.0444,0.0444,0.0444,0,-0.0037,-0.0044,-0.0057,-0.0031,-0.0012,0.002,0.0016,0.0046,0.0057,0.0098,0.0129,0.0172,0.0261,0.0323,0.0369,0.0414,0.0459,0.044,0.0439,0.0513,0.0519,0.0525,0.0578,0.0589,0.0447,0.0446,0.0446,0,-0.0005,0.0005,-0.0003,0.0018,0.0031,0.0058,0.0058,0.0052,0.0081,0.0105,0.014,0.0174,0.0254,0.0312,0.0341,0.0348,0.0466,0.0426,0.0425,0.0435,0.0513,0.052,0.0526,0.0445,0.0444,0.0444,0,0,0.0014,0.0001,0.0039,0.0027,0.0034,0.0061,0.0067,0.0069,0.0091,0.0091,0.0131,0.0182,0.024,0.0268,0.0323,0.038,0.0426,0.0421,0.0421,0.0421,0.043,0.0508,0.0515,0.0442,0.0442,0.0442,0,0,0.0025,0.0045,0.0055,0.0038,0.0068,0.0101,0.009,0.01,0.0112,0.0092,0.0145,0.0156,0.0201,0.0248,0.0213,0.0337,0.0345,0.0352,0.0286,0.0288,0.0288,0.028,0.0246,0,0,0,0,0,0.0069,0.0047,0.0056,0.0059,0.0076,0.0105,0.0109,0.0111,0.0095,0.0091,0.0112,0.0137,0.0247,0.0216,0.0232,0.0262,0.0415,0.042,0.0424,0.0354,0.0355,0.0355,0,0,0,0,0,0,0.0071,0.0072,0.0058,0.0089,0.0094,0.0105,0.0101,0.0102,0.0095,0.0092,0.0132,0.014,0.0174,0.0212,0.0225,0.0253,0.0242,0.0417,0.0421,0.0424,0.0354,0.0355,0.0355,0,0,0,0,0,0.0072,0.0073,0.0092,0.009,0.0094,0.0104,0.0099,0.01,0.0085,0.0144,0.0149,0.0083,0.0174,0.0187,0.022,0.0246,0.0233,0.0238,0.0419,0.0423,0.0425,0.0354,0,0,0,0,0,0,0.0073,0.0076,0.0094,0.0097,0.0077,0.0103,0.0103,0.0098,0.0137,0.0142,0.0101,0.0099,0.0175,0.0185,0.0194,0.0242,0.0226,0.0231,0.0234,0.0422,0.0424,0.0427,0,0,0,0,0,0,0.0076,0.0078,0.0095,0.0078,0.0079,0.0102,0.0102,0.0156,0.0139,0.0092,0.0091,0.01,0.0175,0.0183,0.0191,0.0274,0.022,0.0225,0.0228,0.023,0.0424,0.0426,0,0,0,0,0,0,0.0077,0.0079,0.0077,0.0078,0.0079,0.0108,0.0152,0.0175,0.0103,0.0091,0.0099,0.0098,0.0175,0.0181,0.0188,0.0268,0.0273,0.022,0.0224,0.0226,0.0227,0,0,0,0,0,0,0,0.0078,0.0058,0.008,0.0078,0.0078,0.0123,0.0124,0.0124,0.0102,0.0101,0.01,0.0098,0.0194,0.0199,0.0204,0.0264,0,0,0.022,0.0222,0,0,0,0,0,0,0,0,0.0058,0.0058,0.008,0.0081,0.0082,0.0123,0.0124,0.0124,0.0102,0.0101,0.01,0.0099,0.0195,0.02,0.0204,0,0,0,0,0,0,0,0,0,0,0,0,0,0,0,0.0081,0.0081,0,0.0124,0.0124,0.0124,0.0102,0.0101,0.01,0.0099,0.0197,0.02,0.0203,0,0,0,0,0,0,0,0,0,0,0,0,0,0,0,0,0,0,0,0,0,0,0,0,0,0,0,0,0,0,0,0,0,0,0,0,0,0,0,0,0,0,0,0,0,0,0,0,0,0,0,0,0,0,0,0,0,0,0,0,0,0,0,0,0,0,0,0,0]}]],[[{"header":{"parameterUnit":"kt","parameterCategory":2,"dx":1,"dy":1,"la1":30.253999710083008,"la2":30.299108505249023,"lo1":-89.0895004272461,"lo2":-89.04439544677734,"nx":28,"ny":28,"refTime":"2022-10-05T21:00:00:Z","depth":"4","parameterNumber":2,"parameterNumberName":"U-component_of_CURRENTS"},"data":[-0.1075,-0.1064,-0.1047,-0.0895,-0.0822,-0.0795,-0.0829,-0.0937,-0.086,-0.101,-0.0933,-0.11,-0.0992,-0.112,-0.0949,-0.0955,-0.1199,-0.1038,-0.1035,-0.1531,-0.1566,-0.1597,-0.1572,0,0,0,0,0,-0.1113,-0.1088,-0.1081,-0.1061,-0.1042,-0.1055,-0.1124,-0.1201,-0.1331,-0.1214,-0.1282,-0.1191,-0.1122,-0.1067,-0.0995,-0.1095,-0.131,-0.1008,-0.1428,-0.1553,-0.1591,-0.1554,0,0,0,0,0,0,-0.1179,-0.1166,-0.1206,-0.123,-0.1242,-0.1202,-0.1277,-0.1254,-0.1288,-0.1417,-0.1326,-0.1353,-0.1464,-0.1345,-0.1286,-0.1284,-0.1312,-0.1394,-0.1439,-0.1476,-0.1415,-0.1274,-0.0913,0,0,0,0,0,-0.1236,-0.1287,-0.1299,-0.1348,-0.1392,-0.1406,-0.1458,-0.1449,-0.1567,-0.171,-0.1592,-0.1595,-0.1537,-0.1562,-0.1542,-0.1523,-0.1931,-0.1771,-0.1794,-0.1925,-0.1852,-0.1853,-0.1878,-0.1738,-0.1743,-0.1746,-0.1748,0,-0.1313,-0.1334,-0.1417,-0.1432,-0.1476,-0.1547,-0.1591,-0.1707,-0.1711,-0.1808,-0.178,-0.187,-0.194,-0.1778,-0.1913,-0.1888,-0.1869,-0.1869,-0.2009,-0.1915,-0.1904,-0.192,-0.1934,-0.1779,-0.1776,-0.1774,-0.1771,0,-0.1359,-0.1421,-0.1448,-0.1532,-0.1558,-0.1591,-0.168,-0.1714,-0.1842,-0.1893,-0.1968,-0.2099,-0.2132,-0.227,-0.2341,-0.2326,-0.2257,-0.2143,-0.2419,-0.2414,-0.1989,-0.199,-0.183,-0.1819,-0.1809,-0.1801,-0.1794,0,-0.1424,-0.1448,-0.1527,-0.154,-0.1576,-0.1634,-0.1694,-0.1763,-0.1864,-0.191,-0.2108,-0.2119,-0.242,-0.2466,-0.2507,-0.2409,-0.2569,-0.2323,-0.2292,-0.2642,-0.2641,-0.2602,-0.2597,-0.2659,-0.266,-0.2661,-0.2662,0,-0.1461,-0.1516,-0.1533,-0.1548,-0.1615,-0.1657,-0.1707,-0.1818,-0.1869,-0.2017,-0.2077,-0.2261,-0.2378,-0.2461,-0.2545,-0.262,-0.2599,-0.2678,-0.2366,-0.2343,-0.2606,-0.2599,-0.2663,-0.2663,-0.2663,-0.2664,-0.2664,0,-0.1509,-0.1535,-0.1562,-0.1607,-0.162,-0.1649,-0.1728,-0.1785,-0.192,-0.1989,-0.2132,-0.2238,-0.2399,-0.2426,-0.2573,-0.2621,-0.2624,-0.264,-0.2637,-0.2322,-0.2291,-0.2489,-0.2565,-0.2565,-0.2565,-0.2565,-0.2565,0,-0.1534,-0.1551,-0.1577,-0.1609,-0.1632,-0.1699,-0.1753,-0.1835,-0.1914,-0.198,-0.2117,-0.2222,-0.232,-0.2416,-0.2492,-0.2571,-0.2584,-0.2595,-0.2589,-0.2585,-0.2307,-0.2309,-0.2683,-0.2566,-0.2566,-0.2566,-0.2566,0,-0.154,-0.1593,-0.161,-0.1621,-0.1678,-0.1683,-0.1762,-0.1838,-0.1892,-0.1997,-0.2059,-0.2227,-0.2291,-0.2355,-0.2448,-0.2509,-0.257,-0.2575,-0.2575,-0.2509,-0.2639,-0.2345,-0.2316,-0.2677,-0.2678,-0.2679,-0.2566,0,-0.1561,-0.1603,-0.1615,-0.1645,-0.1661,-0.1698,-0.1755,-0.1805,-0.1877,-0.1929,-0.2055,-0.2133,-0.2243,-0.2289,-0.2371,-0.2474,-0.2474,-0.2497,-0.2474,-0.2544,-0.2481,-0.2481,-0.2457,-0.2455,-0.2454,-0.2452,0,0,-0.1577,-0.1597,-0.1627,-0.1636,-0.1657,-0.1721,-0.1739,-0.1787,-0.1859,-0.1909,-0.1936,-0.2104,-0.2152,-0.2289,-0.2346,-0.2367,-0.2393,-0.2414,-0.2514,-0.2521,-0.2527,-0.2472,-0.2473,-0.245,-0.2449,-0.2449,-0.2448,0,-0.1573,-0.1607,-0.1621,-0.164,-0.1687,-0.1711,-0.1732,-0.1778,-0.182,-0.1904,-0.1958,-0.204,-0.216,-0.2208,-0.2264,-0.2351,-0.2347,-0.2405,-0.2465,-0.2501,-0.251,-0.2518,-0.2466,-0.2468,-0.2445,-0.2445,-0.2445,0,-0.1575,-0.1591,-0.1612,-0.1642,-0.1674,-0.1696,-0.1726,-0.1774,-0.1807,-0.1869,-0.1933,-0.1998,-0.208,-0.2175,-0.2221,-0.2217,-0.2315,-0.231,-0.2318,-0.2285,-0.2318,-0.2329,-0.2339,-0.2206,-0.2206,-0.2205,0,0,-0.1567,-0.1588,-0.1625,-0.1646,-0.1666,-0.1709,-0.173,-0.1765,-0.1828,-0.1861,-0.1902,-0.1977,-0.2055,-0.2117,-0.2148,-0.2245,-0.221,-0.2283,-0.2294,-0.2303,-0.2276,-0.2311,-0.2322,-0.2203,-0.2203,-0.2203,0,0,-0.1568,-0.1612,-0.1632,-0.1657,-0.1684,-0.1717,-0.1739,-0.177,-0.1841,-0.1877,-0.1923,-0.1943,-0.2034,-0.2056,-0.2023,-0.2156,-0.2107,-0.2115,-0.2163,-0.2177,-0.2188,-0.2144,-0.2004,0,0,0,0,0,-0.1593,-0.1603,-0.1621,-0.1631,-0.1681,-0.1704,-0.171,-0.1753,-0.1791,-0.18,-0.1889,-0.1883,-0.2053,-0.2024,-0.2037,-0.2089,-0.2172,-0.2178,-0.2183,-0.2262,-0.2277,-0.2289,0,0,0,0,0,0,-0.1597,-0.1607,-0.1621,-0.1653,-0.1666,-0.1703,-0.1732,-0.1743,-0.179,-0.1798,-0.187,-0.1883,-0.1906,-0.2018,-0.2029,-0.2079,-0.2,-0.2174,-0.2179,-0.2183,-0.2267,-0.2279,-0.2289,0,0,0,0,0,-0.16,-0.1609,-0.1682,-0.1654,-0.1664,-0.172,-0.1733,-0.1743,-0.1785,-0.1833,-0.1848,-0.1823,-0.1904,-0.1919,-0.2025,-0.2074,-0.1992,-0.1996,-0.2177,-0.2181,-0.2184,-0.2273,0,0,0,0,0,0,-0.1603,-0.1609,-0.1685,-0.1689,-0.1667,-0.1719,-0.1729,-0.1742,-0.182,-0.1833,-0.1784,-0.1789,-0.1902,-0.1914,-0.1926,-0.2073,-0.1986,-0.199,-0.1993,-0.218,-0.2183,-0.2186,0,0,0,0,0,0,-0.1605,-0.1612,-0.1687,-0.1701,-0.1708,-0.1718,-0.1727,-0.1767,-0.1822,-0.1767,-0.1773,-0.1786,-0.1906,-0.1911,-0.192,-0.1977,-0.1981,-0.1985,-0.1988,-0.199,-0.2182,-0.2185,0,0,0,0,0,0,-0.1609,-0.1615,-0.17,-0.1705,-0.1711,-0.1763,-0.1756,-0.1816,-0.18,-0.1764,-0.1804,-0.1806,-0.1903,-0.1912,-0.1916,-0.1968,-0.1975,-0.1981,-0.1984,-0.1986,-0.1987,0,0,0,0,0,0,0,-0.1612,-0.1562,-0.1662,-0.1708,-0.1713,-0.1734,-0.1734,-0.1735,-0.1801,-0.1802,-0.1804,-0.1806,-0.1957,-0.1962,-0.1967,-0.1961,0,0,-0.1981,-0.1983,0,0,0,0,0,0,0,0,-0.156,-0.1561,-0.1662,-0.1663,-0.1665,-0.1734,-0.1734,-0.1735,-0.1801,-0.1802,-0.1804,-0.1805,-0.1959,-0.1962,-0.1966,0,0,0,0,0,0,0,0,0,0,0,0,0,0,0,-0.1662,-0.1663,0,-0.1734,-0.1734,-0.1735,-0.1801,-0.1802,-0.1803,-0.1804,-0.196,-0.1963,-0.1966,0,0,0,0,0,0,0,0,0,0,0,0,0,0,0,0,0,0,0,0,0,0,0,0,0,0,0,0,0,0,0,0,0,0,0,0,0,0,0,0,0,0,0,0,0,0,0,0,0,0,0,0,0,0,0,0,0,0,0,0,0,0,0,0,0,0,0,0,0]}],[{"header":{"parameterUnit":"kt","parameterCategory":2,"dx":1,"dy":1,"la1":30.253999710083008,"la2":30.299108505249023,"lo1":-89.0895004272461,"lo2":-89.04439544677734,"nx":28,"ny":28,"refTime":"2022-10-05T21:00:00:Z","depth":"4","parameterNumber":3,"parameterNumberName":"V-component_of_CURRENTS"},"data":[-0.1121,-0.1196,-0.1237,-0.135,-0.1431,-0.1573,-0.164,-0.1689,-0.1578,-0.1596,-0.1411,-0.1394,-0.1089,-0.1309,-0.0832,-0.0786,-0.0839,-0.0514,-0.0508,-0.0677,-0.07,-0.0721,-0.0717,0,0,0,0,0,-0.1126,-0.1167,-0.1268,-0.1382,-0.1517,-0.1592,-0.1696,-0.1749,-0.1792,-0.1675,-0.167,-0.1482,-0.1199,-0.1087,-0.0851,-0.0906,-0.078,-0.0627,-0.0773,-0.0691,-0.0717,-0.0705,0,0,0,0,0,0,-0.1136,-0.1184,-0.1268,-0.1378,-0.1515,-0.161,-0.169,-0.1698,-0.1729,-0.1753,-0.1687,-0.157,-0.1525,-0.1209,-0.1011,-0.0824,-0.0785,-0.0763,-0.0783,-0.0807,-0.0803,-0.077,-0.0552,0,0,0,0,0,-0.113,-0.118,-0.1254,-0.1377,-0.1491,-0.1621,-0.1731,-0.1744,-0.1836,-0.1907,-0.1789,-0.1673,-0.15,-0.13,-0.1102,-0.0921,-0.1035,-0.0897,-0.0911,-0.0947,-0.0928,-0.0918,-0.0938,-0.0814,-0.0818,-0.082,-0.0821,0,-0.1114,-0.1159,-0.1299,-0.1368,-0.144,-0.1576,-0.1666,-0.1769,-0.1815,-0.1889,-0.1877,-0.1833,-0.1789,-0.1431,-0.1332,-0.1076,-0.1024,-0.0964,-0.1004,-0.0971,-0.0952,-0.0966,-0.0978,-0.0842,-0.084,-0.0838,-0.0837,0,-0.1099,-0.1156,-0.1259,-0.1378,-0.1428,-0.1514,-0.1672,-0.175,-0.1824,-0.1895,-0.1926,-0.1921,-0.1797,-0.1701,-0.1564,-0.1426,-0.1251,-0.114,-0.1376,-0.136,-0.1013,-0.1017,-0.0876,-0.0868,-0.0862,-0.0856,-0.0852,0,-0.1086,-0.1165,-0.1261,-0.131,-0.1417,-0.1494,-0.1621,-0.1682,-0.1758,-0.1816,-0.186,-0.1854,-0.1828,-0.1751,-0.1635,-0.1412,-0.1514,-0.1254,-0.1218,-0.1462,-0.1465,-0.1404,-0.14,-0.1445,-0.1446,-0.1447,-0.1447,0,-0.1046,-0.1169,-0.1245,-0.1286,-0.1396,-0.1463,-0.1533,-0.1618,-0.1673,-0.1757,-0.1799,-0.1794,-0.181,-0.1726,-0.1619,-0.1637,-0.1508,-0.1528,-0.1276,-0.1262,-0.1407,-0.1401,-0.1448,-0.1448,-0.1449,-0.1449,-0.1449,0,-0.1043,-0.1099,-0.1196,-0.1312,-0.1337,-0.1408,-0.1509,-0.1572,-0.1637,-0.1668,-0.17,-0.1706,-0.1717,-0.1672,-0.1606,-0.163,-0.156,-0.1518,-0.1514,-0.1281,-0.1245,-0.1377,-0.1445,-0.1446,-0.1446,-0.1447,-0.1447,0,-0.099,-0.1086,-0.1126,-0.1234,-0.1282,-0.1321,-0.1383,-0.144,-0.1489,-0.1551,-0.1547,-0.1611,-0.1569,-0.1608,-0.159,-0.1564,-0.1538,-0.1567,-0.1446,-0.1441,-0.1265,-0.128,-0.1551,-0.1455,-0.1454,-0.1453,-0.1453,0,-0.0945,-0.1034,-0.1053,-0.1099,-0.1163,-0.1202,-0.127,-0.1329,-0.1383,-0.1426,-0.1486,-0.1534,-0.1528,-0.1534,-0.1533,-0.1529,-0.1543,-0.1496,-0.1492,-0.1451,-0.1499,-0.1312,-0.1289,-0.1551,-0.1551,-0.1551,-0.1458,0,-0.0928,-0.0985,-0.1014,-0.1073,-0.111,-0.1155,-0.1184,-0.1232,-0.1264,-0.1291,-0.1358,-0.1375,-0.1414,-0.1435,-0.1432,-0.1472,-0.1435,-0.1425,-0.1375,-0.1436,-0.1385,-0.1382,-0.1388,-0.1386,-0.1384,-0.1382,0,0,-0.0871,-0.0922,-0.0934,-0.0983,-0.1014,-0.1015,-0.1065,-0.1093,-0.1154,-0.1184,-0.1182,-0.1263,-0.1276,-0.1332,-0.1361,-0.1375,-0.1344,-0.1359,-0.1412,-0.1416,-0.1419,-0.1375,-0.1374,-0.1379,-0.1378,-0.1377,-0.1377,0,-0.0855,-0.0876,-0.0917,-0.0945,-0.0979,-0.0992,-0.1009,-0.1048,-0.1069,-0.1146,-0.1137,-0.1179,-0.1241,-0.1248,-0.1259,-0.1348,-0.1288,-0.1358,-0.1407,-0.1397,-0.1404,-0.1409,-0.1368,-0.1368,-0.1372,-0.1372,-0.1372,0,-0.0812,-0.0836,-0.0856,-0.0897,-0.0912,-0.0952,-0.093,-0.0971,-0.1012,-0.0997,-0.1076,-0.109,-0.1095,-0.1159,-0.1184,-0.1161,-0.123,-0.1232,-0.1242,-0.1212,-0.1197,-0.1205,-0.1213,-0.1113,-0.1112,-0.1112,0,0,-0.08,-0.0838,-0.0854,-0.0891,-0.0901,-0.092,-0.0941,-0.0949,-0.098,-0.0997,-0.1022,-0.1043,-0.107,-0.1095,-0.1111,-0.1179,-0.1129,-0.1205,-0.1217,-0.1227,-0.1204,-0.1192,-0.12,-0.111,-0.111,-0.111,0,0,-0.0789,-0.0819,-0.0816,-0.0859,-0.0881,-0.0901,-0.0927,-0.0936,-0.0978,-0.0982,-0.0982,-0.0987,-0.1048,-0.1038,-0.1016,-0.1099,-0.1043,-0.1048,-0.1125,-0.114,-0.1152,-0.1119,-0.0968,0,0,0,0,0,-0.0779,-0.0816,-0.0813,-0.0821,-0.0865,-0.0901,-0.0908,-0.0916,-0.0916,-0.094,-0.0966,-0.094,-0.102,-0.1001,-0.1009,-0.1055,-0.1087,-0.1091,-0.1095,-0.1207,-0.1223,-0.1236,0,0,0,0,0,0,-0.0782,-0.0792,-0.0812,-0.0832,-0.0842,-0.09,-0.0877,-0.088,-0.0913,-0.0913,-0.0939,-0.094,-0.0931,-0.0996,-0.1003,-0.1047,-0.0965,-0.1088,-0.1092,-0.1095,-0.1213,-0.1226,-0.1237,0,0,0,0,0,-0.0785,-0.0792,-0.086,-0.0832,-0.084,-0.0859,-0.0875,-0.0878,-0.0911,-0.0911,-0.0914,-0.0916,-0.0932,-0.0938,-0.1,-0.1044,-0.096,-0.0963,-0.1091,-0.1093,-0.1096,-0.1219,0,0,0,0,0,0,-0.0787,-0.0799,-0.0862,-0.0866,-0.0818,-0.0856,-0.0862,-0.0876,-0.0907,-0.091,-0.0886,-0.0884,-0.0933,-0.0937,-0.0942,-0.1045,-0.0956,-0.0959,-0.096,-0.1093,-0.1095,-0.1097,0,0,0,0,0,0,-0.0795,-0.0802,-0.0864,-0.0846,-0.0848,-0.0854,-0.0859,-0.0892,-0.0907,-0.0881,-0.088,-0.0885,-0.0921,-0.0937,-0.0941,-0.0993,-0.0953,-0.0955,-0.0957,-0.0958,-0.1094,-0.1096,0,0,0,0,0,0,-0.0798,-0.0804,-0.0846,-0.0847,-0.0848,-0.0886,-0.0883,-0.0927,-0.0896,-0.0879,-0.0893,-0.0892,-0.0921,-0.0925,-0.094,-0.099,-0.0992,-0.0953,-0.0955,-0.0956,-0.0957,0,0,0,0,0,0,0,-0.0801,-0.0758,-0.0841,-0.0847,-0.0848,-0.0895,-0.0896,-0.0898,-0.0896,-0.0895,-0.0893,-0.0892,-0.0937,-0.094,-0.0943,-0.0988,0,0,-0.0952,-0.0954,0,0,0,0,0,0,0,0,-0.0756,-0.0757,-0.0841,-0.0842,-0.0842,-0.0896,-0.0896,-0.0897,-0.0896,-0.0895,-0.0894,-0.0893,-0.0938,-0.094,-0.0943,0,0,0,0,0,0,0,0,0,0,0,0,0,0,0,-0.0841,-0.0842,0,-0.0896,-0.0896,-0.0897,-0.0896,-0.0895,-0.0894,-0.0893,-0.0939,-0.0941,-0.0943,0,0,0,0,0,0,0,0,0,0,0,0,0,0,0,0,0,0,0,0,0,0,0,0,0,0,0,0,0,0,0,0,0,0,0,0,0,0,0,0,0,0,0,0,0,0,0,0,0,0,0,0,0,0,0,0,0,0,0,0,0,0,0,0,0,0,0,0,0]}]]]